{"data":{"norad_id":41238,"epoch":"2026-09-20T01:46:08.201856Z","epoch_age_seconds":58754,"freshness":"FRESH","line1":"1 41238U 16001A   26263.07370604  .00000103  00000+0  00000+0 0  9994","line2":"2 41238   0.0365  76.2729 0000706  28.0029 332.7365  1.00270536 39185","mean_motion":1.00270536,"eccentricity":7.06e-5,"inclination_deg":0.0365,"raan_deg":76.2729,"arg_perigee_deg":28.0029,"mean_anomaly_deg":332.7365,"bstar":0,"rev_number":3918,"period_min":1436.114792485,"perigee_km":35783.968250069,"apogee_km":35789.921959662,"semimajor_km":42165.082104865,"source":"CELESTRAK","updated_at":"2026-09-20T09:00:35.222790Z"}}